Theta_e
327 328 329 330 332 335 335 334 333 332 331 327 324 326 330 331 332 331 332 329 320 317 317 320 329 331 332 330 326 326 323 322 323 325 325 330 327 324 321 316 326 327 324
324 327 328 329 331 334 336 333 332 331 331 328 326 325 329 331 331 332 331 322 319 332 330 329 329 330 331 327 327 321 317 325 323 324 329 329 326 324 320 321 323 324 322
320 322 327 329 330 332 334 335 332 330 330 329 328 324 326 331 332 333 331 320 329 332 331 328 331 330 327 324 326 317 319 325 324 327 329 326 324 322 323 323 324 322 323
315 317 321 326 328 331 333 334 332 330 329 328 328 325 323 327 331 333 331 321 331 333 333 330 327 326 327 327 320 317 319 326 326 327 325 323 322 320 322 323 325 325 324
312 311 313 318 325 328 331 332 333 330 330 328 328 328 325 326 331 333 331 328 332 331 331 329 326 323 322 319 323 323 320 322 322 323 324 323 322 322 320 320 321 321 321
311 309 309 310 314 324 327 330 331 333 330 329 328 329 328 324 328 331 332 329 329 329 322 323 324 320 319 320 321 321 321 321 319 317 317 319 319 321 320 313 313 311 311
309 308 308 308 310 315 325 327 330 331 331 331 329 329 328 327 324 330 332 330 327 327 328 316 322 325 323 323 323 322 321 320 318 316 315 319 319 320 321 312 309 307 306
307 307 307 308 309 310 315 324 326 329 329 329 330 328 327 327 325 327 332 331 326 327 326 326 322 324 323 324 323 322 321 320 319 321 320 320 320 316 310 306 305 304 304
306 306 307 308 309 310 312 318 323 327 328 328 328 328 326 324 324 323 330 332 329 324 323 325 321 324 323 322 320 320 320 320 319 318 318 322 322 320 312 307 304 304 303
305 305 307 308 309 311 312 314 321 323 325 326 327 327 326 324 323 323 325 330 331 325 323 317 319 321 321 321 319 319 319 319 319 318 315 323 323 321 310 305 304 303 303
304 304 305 307 308 310 312 312 317 320 325 325 326 323 321 321 320 321 323 330 330 326 326 323 320 318 319 320 320 318 318 318 319 318 317 314 320 315 305 304 305 306 310
304 303 303 303 305 308 311 312 313 319 321 325 324 325 322 321 320 319 320 326 329 328 323 324 318 318 317 320 319 317 317 317 317 317 315 311 311 306 306 308 309 311 316
304 304 302 301 301 302 307 311 312 314 318 322 323 325 324 322 319 319 323 324 324 323 326 327 317 315 316 319 318 316 316 315 315 315 312 314 312 308 311 311 314 316 319
305 304 303 302 300 300 301 308 311 313 315 319 321 321 323 323 322 320 319 323 325 325 326 327 318 314 311 310 311 315 315 315 313 312 310 311 310 311 312 315 318 321 322
305 305 304 303 301 299 299 302 309 312 314 316 319 321 322 323 324 322 321 319 325 326 326 327 320 321 318 315 314 315 314 314 314 315 314 313 313 314 314 317 319 319 318
305 304 304 303 300 297 297 298 302 308 312 314 315 317 320 321 323 323 322 321 319 325 326 326 323 323 318 315 314 314 316 317 317 316 315 315 315 315 315 315 315 316 316
305 305 304 301 298 296 296 297 298 302 307 312 314 315 316 318 321 322 321 318 317 322 324 323 322 321 319 317 320 319 318 319 318 318 317 316 316 316 316 316 316 316 316
305 304 303 299 298 296 295 295 297 299 302 310 314 315 315 316 318 322 321 318 316 319 321 323 324 324 320 320 322 320 319 319 319 319 320 320 319 318 318 318 318 317 317
304 304 302 300 299 296 300 300 297 298 302 306 311 313 314 316 317 318 322 321 321 319 320 321 323 322 321 320 320 320 319 320 320 320 320 320 319 320 317 317 317 317 316
304 303 301 300 298 297 301 302 301 299 302 306 311 313 313 314 316 318 321 319 321 320 318 322 323 322 322 321 320 319 320 320 321 321 320 319 319 318 317 316 316 315 314
304 302 301 300 296 297 301 302 302 301 304 307 311 312 314 314 316 318 318 321 321 319 318 321 323 323 323 323 321 320 320 321 321 320 320 318 320 319 316 315 316 316 314
303 302 301 299 295 297 300 302 302 302 304 309 311 313 314 315 317 318 318 320 322 321 321 321 320 322 322 323 321 320 321 321 319 319 318 318 316 317 316 315 315 315 314
302 301 300 298 295 296 299 301 301 302 306 308 309 313 315 316 317 317 319 319 321 321 322 321 321 322 322 322 321 320 320 319 319 318 319 318 315 316 315 316 316 315 314
302 301 300 297 295 299 299 301 302 301 305 308 310 314 315 317 317 318 320 320 321 320 322 321 320 322 322 323 321 319 320 319 318 316 317 315 315 315 314 315 315 316 316
302 301 299 295 295 300 301 301 301 301 305 308 309 312 315 315 315 318 321 320 321 321 322 319 320 321 321 322 321 319 320 319 319 317 316 315 316 315 315 315 316 315 315
301 300 298 294 296 300 301 301 301 302 304 306 309 311 313 316 315 320 320 322 321 321 321 317 320 320 322 323 320 319 320 320 318 318 317 316 314 314 314 314 315 315 314
Wind_Speed
6 7 10 15 11 11 10 9 9 7 7 6 6 7 8 10 10 9 7 5 5 7 11 13 12 12 15 10 7 6 7 9 14 13 10 14 8 7 7 11 17 14 9
12 11 9 8 10 10 8 10 10 9 8 8 8 7 10 10 10 9 8 7 9 12 13 13 13 14 12 8 7 7 8 15 16 16 14 11 6 2 11 21 15 13 6
13 13 11 8 8 11 9 10 11 11 10 10 10 9 10 11 10 10 9 12 14 14 14 14 14 13 9 8 5 7 18 17 18 18 17 9 4 4 14 15 12 10 8
15 15 14 11 10 11 10 10 13 12 12 11 11 11 11 11 13 13 12 16 14 16 15 13 14 12 11 9 7 13 18 18 15 15 12 9 5 6 13 12 12 14 10
14 15 15 13 12 12 12 12 10 14 15 15 13 12 11 11 13 14 15 16 16 15 15 13 14 13 10 11 16 15 13 12 13 10 8 9 8 7 9 12 12 8 8
15 17 16 13 12 12 14 12 9 14 16 18 17 15 13 12 13 15 17 18 15 13 13 15 15 13 12 15 15 12 13 12 9 6 6 7 6 5 6 9 7 7 6
17 18 18 16 13 12 13 12 13 10 18 18 21 18 16 15 13 15 19 20 17 11 12 13 17 16 13 16 14 13 11 11 5 7 10 7 5 7 8 6 6 6 6
18 17 16 15 14 13 13 14 11 11 14 20 23 23 14 12 13 15 21 24 20 16 12 14 18 17 15 16 17 16 14 10 7 9 6 6 5 7 7 7 6 5 5
18 17 16 15 13 13 12 12 13 15 12 15 18 21 23 17 16 14 21 26 27 20 13 17 17 19 16 16 14 11 12 11 7 5 5 6 8 2 2 3 3 4 4
16 16 14 13 13 12 13 11 12 15 17 15 16 19 26 24 23 18 20 21 25 18 16 15 17 18 18 18 14 12 11 11 7 5 5 9 11 5 2 1 2 3 4
14 14 14 13 13 12 13 13 12 15 16 13 18 16 19 22 22 17 21 17 16 21 14 14 14 19 18 20 14 11 10 9 7 5 3 8 11 7 2 1 3 5 7
15 14 14 14 13 13 13 14 13 14 16 14 16 23 22 23 21 17 20 17 18 15 12 14 16 17 18 22 18 13 10 8 7 6 3 7 4 3 2 3 5 6 6
18 18 17 16 14 13 13 15 16 15 18 15 14 22 23 22 24 24 17 15 18 16 18 18 20 19 21 21 19 15 11 8 7 5 4 5 3 3 3 6 6 4 5
17 18 19 19 16 14 14 14 17 16 17 18 15 19 19 23 27 29 28 14 18 23 25 23 23 22 23 20 17 14 10 9 6 4 4 4 3 4 5 4 2 5 4
15 17 19 20 20 16 14 14 16 17 15 18 20 17 20 21 20 28 35 26 14 25 30 30 29 27 23 17 14 13 11 9 7 5 5 5 5 4 3 4 5 5 6
15 18 21 21 20 19 15 14 15 17 17 17 17 19 20 22 20 23 34 39 18 20 39 32 26 25 23 24 21 16 12 10 8 6 5 4 4 3 3 3 5 5 6
16 19 22 20 19 19 18 14 13 16 17 18 18 19 16 20 20 18 33 34 26 17 18 18 26 25 27 24 19 19 14 9 7 5 4 3 3 2 3 4 6 7 7
17 18 20 20 20 19 18 16 14 14 16 17 17 17 16 16 21 21 24 32 31 23 19 20 25 19 26 24 21 18 15 10 7 5 3 2 2 3 5 6 7 7 7
17 17 19 20 21 20 19 17 15 13 13 14 14 16 16 15 18 24 28 28 26 24 22 19 19 25 22 23 20 17 13 10 6 4 4 3 3 3 4 6 7 8 6
16 17 19 20 22 20 18 17 16 13 11 11 12 12 15 17 18 23 30 31 27 25 23 23 23 20 23 23 19 15 13 11 8 6 6 6 6 7 7 8 9 7 6
16 16 19 21 21 20 18 17 11 13 11 11 12 13 14 14 18 22 28 35 34 28 33 27 26 27 27 25 20 17 14 13 10 9 7 8 10 9 8 9 8 7 7
16 16 20 20 19 18 16 16 14 11 10 10 10 13 14 15 16 20 29 32 35 33 31 35 29 29 28 26 23 20 12 13 12 10 10 8 8 9 8 10 10 9 9
14 17 18 18 17 16 14 14 11 8 7 7 8 11 11 14 18 20 26 31 36 35 30 39 33 33 32 31 24 14 7 6 12 10 11 10 9 11 11 12 11 10 9
13 15 17 17 15 14 13 11 10 6 5 5 8 5 9 10 17 21 25 31 36 36 33 35 30 33 33 33 28 24 13 10 11 8 12 11 10 9 10 11 9 11 12
12 13 16 15 14 12 11 10 7 4 4 5 7 6 6 4 10 14 24 33 40 37 32 33 28 36 33 32 31 29 18 11 10 8 8 15 13 13 12 11 11 13 14
12 13 14 14 13 11 12 9 6 4 1 5 5 7 6 3 6 10 21 33 34 37 31 32 28 28 32 32 30 27 25 17 15 11 7 10 15 14 13 13 14 13 14
Wind_Direction
342 336 337 333 319 316 281 251 238 224 232 232 226 217 206 200 202 195 203 219 186 158 143 144 147 140 143 150 134 150 140 119 150 144 115 120 107 84 71 116 95 109 88
336 330 317 322 315 300 305 263 245 219 230 235 227 215 219 207 203 201 204 173 157 147 149 150 153 159 165 143 154 138 131 127 141 142 137 139 125 108 69 125 106 109 77
326 315 313 317 304 289 298 267 253 235 217 235 229 217 217 217 212 199 196 174 165 159 156 160 162 163 173 177 176 156 141 135 133 138 138 132 108 101 94 100 88 103 86
349 337 328 316 316 301 287 296 250 244 229 223 231 220 212 218 215 204 190 170 172 173 177 174 179 181 184 187 151 133 151 146 143 147 144 127 96 80 133 118 112 108 124
340 340 341 330 308 315 303 293 275 244 238 224 221 223 211 215 216 208 185 173 172 180 189 195 176 188 190 163 144 146 147 162 167 168 172 166 123 117 123 155 139 157 150
324 322 318 318 315 298 305 292 298 253 232 229 217 213 209 206 221 212 197 185 193 214 197 173 162 168 158 145 153 154 160 155 145 156 184 166 160 141 134 136 141 121 143
318 316 315 313 306 295 274 292 286 263 240 231 228 212 198 192 215 219 206 192 196 200 182 163 161 160 160 149 158 158 150 150 148 125 128 144 129 126 116 109 108 105 90
317 316 313 311 309 299 293 271 277 261 252 249 227 223 203 194 196 231 215 202 189 185 192 157 168 167 172 172 175 165 161 164 144 123 125 120 89 118 79 80 86 83 77
316 316 313 312 306 301 290 276 272 265 251 263 234 222 204 234 244 231 224 207 195 171 171 170 173 174 178 182 177 170 168 174 166 143 134 135 142 173 50 57 79 75 70
318 319 314 309 306 297 291 282 255 258 266 251 247 238 232 229 209 215 236 233 190 162 164 178 171 175 181 182 177 170 171 176 181 163 148 144 159 214 336 124 99 81 76
326 325 320 314 305 297 287 284 267 251 254 239 222 214 198 200 197 207 230 233 225 162 176 184 187 181 187 189 191 185 184 184 184 182 184 198 213 256 227 147 101 99 98
323 327 326 320 310 297 286 283 278 252 249 240 220 210 198 195 196 212 221 227 227 176 199 199 188 184 178 185 197 197 197 200 203 206 206 168 194 202 162 119 113 105 80
326 327 326 324 319 306 289 276 275 272 244 246 226 213 206 208 203 211 220 222 223 216 210 205 190 180 178 188 199 198 200 204 194 200 190 184 198 169 140 128 113 93 19
319 327 326 323 319 312 301 283 273 268 264 241 230 235 217 206 206 210 224 241 227 212 214 209 191 181 173 179 191 191 193 192 181 164 155 161 170 163 155 141 116 327 316
320 324 325 322 320 316 307 292 279 272 263 252 236 231 226 220 213 222 214 218 228 214 217 210 201 194 178 157 189 196 180 171 163 155 147 148 158 163 175 196 243 257 282
314 322 327 323 319 316 312 301 284 273 269 258 253 240 239 237 208 239 211 216 231 221 216 210 196 183 158 166 180 184 174 163 158 147 140 159 178 188 213 240 262 281 295
306 319 326 324 321 315 311 298 288 273 268 260 254 249 241 238 237 214 207 212 216 230 216 228 197 183 168 172 175 174 171 166 161 154 141 145 168 211 248 269 281 303 307
298 312 327 325 321 316 313 303 288 278 264 258 249 241 238 238 230 234 197 206 213 220 223 214 195 186 177 175 182 178 167 177 176 184 193 207 247 265 272 274 286 299 321
289 310 323 323 320 319 315 304 291 284 266 257 253 246 242 242 226 221 215 211 219 213 217 221 217 186 184 189 180 171 171 187 195 204 215 225 242 265 277 295 303 299 298
292 309 321 324 322 320 317 313 296 281 259 244 246 249 249 244 235 223 220 209 211 220 223 215 210 196 200 186 179 177 192 195 202 206 220 244 255 265 283 298 300 278 282
299 311 320 323 320 318 317 317 295 279 250 241 244 242 236 239 237 235 222 216 216 219 224 215 212 198 193 193 182 185 192 201 206 220 232 248 252 255 277 284 281 281 290
306 311 320 323 323 320 322 322 316 298 264 230 233 243 245 238 239 239 225 215 214 210 216 213 206 200 199 197 189 188 200 217 211 222 244 243 252 250 258 265 286 297 306
310 311 321 325 323 320 320 325 316 316 275 256 248 239 239 246 239 245 224 216 216 212 208 208 207 206 200 195 199 183 177 205 213 226 236 237 238 240 247 251 277 295 298
307 315 323 328 327 329 331 331 327 342 280 286 295 262 236 258 260 242 215 210 212 209 210 208 205 212 202 199 205 200 207 211 187 192 209 224 233 240 243 245 266 292 297
305 318 327 333 332 336 336 332 328 349 294 298 303 260 235 237 350 211 214 206 210 204 211 198 206 198 211 209 206 199 206 212 203 196 201 222 231 234 239 255 282 286 288
316 321 332 338 332 338 339 335 331 357 297 323 297 275 257 9 356 213 190 196 207 207 205 196 203 207 215 208 210 210 212 214 209 205 218 226 236 246 251 265 276 283 295